Вернуться в каталог

HAWK-8C

АктивенНаукаVLEO
NORAD 59449·PAYLOAD·🇺🇸 United States

Запущен Apr 7, 2024 с Cape Canaveral Space Force Station

Loading…

Ближайшие Пролёты (ближайшие 24 часа)

TLE

СвежийSource: Space-Track

Эпоха: Sep 14, 2026, 11:08 UTC

1 59449U 24066H   26257.46415750  .00002325  00000-0  20563-3 0  9994
2 59449  45.6066 176.0153 0002246 204.7371 155.3403 14.99416897133221

Отслеживайте HAWK-8C в реальном времени с AllMySat

Download on the App Store